Location: Hepcat Sky Observatory
(29.9800°N, 95.6500°W)
Time: 15:35:41
(UTC-05:00)

Cosmos 2366 rocket - Visible Passes

Search period start: 30 April 2017 00:00
Search period end: 10 May 2017 00:00
Orbit: 956 x 996 km, 82.9° (Epoch: 29 April)

Date Brightness Start Highest point End Pass type
(mag) Time Alt. Az. Time Alt. Az. Time Alt. Az.
30 Apr 6.5 01:10:48 10° NNE 01:11:43 13° NE 01:11:43 13° NE visible
30 Apr 5.9 02:54:29 10° NNW 02:56:22 20° NNW 02:56:22 20° NNW visible
01 May 6.2 01:35:07 10° NNE 01:37:06 19° NNE 01:37:06 19° NNE visible
01 May 6.2 03:20:54 10° NW 03:21:46 13° NW 03:21:46 13° NW visible
02 May 5.9 02:00:15 10° N 02:02:30 23° N 02:02:30 23° N visible
03 May 6.5 00:42:56 10° NE 00:43:14 11° NE 00:43:14 11° NE visible
03 May 6.0 02:25:56 10° NNW 02:27:54 21° NNW 02:27:54 21° NNW visible
04 May 6.2 01:06:52 10° NNE 01:08:40 18° NNE 01:08:40 18° NNE visible
04 May 6.2 02:52:10 10° NNW 02:53:20 15° NW 02:53:20 15° NW visible
05 May 6.0 01:31:51 10° N 01:34:06 23° N 01:34:06 23° N visible
06 May 5.9 01:57:23 10° N 01:59:33 23° NNW 01:59:33 23° NNW visible
07 May 6.2 00:38:38 10° NNE 00:40:19 16° NE 00:40:19 16° NE visible
07 May 6.1 02:23:28 10° NNW 02:25:00 17° NNW 02:25:00 17° NNW visible
08 May 5.9 01:03:27 10° N 01:05:47 23° NNE 01:05:47 23° NNE visible
08 May 6.4 02:50:25 10° NW 02:50:28 10° NW 02:50:28 10° NW visible
09 May 5.8 01:28:53 10° N 01:31:16 25° N 01:31:16 25° N visible
